www.pogodaiklimat.ru

Погода и климат >> Архив погоды >> Индия >> Тамилнад >> Каньякумари


ПОГОДА в Каньякумари

  • Прогноз погоды в Каньякумари
  • Монитор погоды в Каньякумари

АРХИВ ПОГОДЫ в Каньякумари

Время (UTC), дата Ветер
(напр.,м/с)
 
Видим.   Явления Облачность Т
(С)
Тd
(С)
f
(%)
Тe
(С)
Тes
(С)
Комфортность P
(гПа)
Po
(гПа)
Тmin
(С)
Tmax
(С)
R
(мм)
R24
(мм)
S
(см)
03 11.09 З 6 10 км 5/1 600 м
[Cu hum Ci sp]
+28.0 +25.2 85 +41 +43 опасность
перегрева
1009.6 1005.5 +25.9 +33.3
06 11.09 З 6 10 км 5/3 600 м
[Sc Ac lent Cc]
+30.4 +26.8 81 +47 +53 опасность
перегрева
1009.5 1005.4
09 11.09 З 6 10 км 6/3 600 м
[Sc Ac trans Ci sp]
+29.8 +26.5 83 +46 +49 опасность
перегрева
1006.7 1002.6
12 11.09 З 5 10 км 8/4 600 м
[Sc Ac trans Ci sp]
+29.2 +26.7 86 +45 +45 опасность
перегрева
1007.1 1003.0 +32.4
15 11.09 З 5 4000 м 1/1 600 м
[Sc]
+27.6 +23.8 80 +38 +38 очень
душно
1011.1 1007.0
18 11.09 З 5 4000 м 9/4 300 м
[Frnb Ac trans]
+27.0 +24.1 84 +37 +37 очень
душно
1011.0 1006.9
21 11.09 З 4 4000 м 9/4 600 м
[Cu Sc Ac As]
+27.2 +24.4 85 +38 +38 очень
душно
1010.0 1005.9
00 12.09 З 3 4000 м 9/4 300 м
[Cb cap Ci sp]
+26.6 +24.0 86 +37 +37 очень
душно
1010.2 1006.1
03 12.09 З 5 10 км 6/1 600 м
[Sc Ci sp]
+27.6 +23.8 80 +38 +41 очень
душно
1013.2 1009.1 +24.9 +32.4
06 12.09 З 3 10 км 8/3 600 м
[Cu med, cong Ac trans Ci fib]
+29.2 +26.4 85 +45 +52 опасность
перегрева
1011.8 1007.7
09 12.09 З 3 10 км 9/3 600 м
[Sc diur, vesp Ac trans Cs]
+29.2 +24.9 78 +42 +47 опасность
перегрева
1008.7 1004.6
12 12.09 З 4 10 км 10/4 600 м
[Sc diur, vesp Ac trans Ci sp]
+27.0 +24.7 87 +38 +38 очень
душно
1009.2 1005.1 +30.6
15 12.09 З 3 4000 м 9/4 600 м
[Sc Ac trans Ci sp]
+27.4 +24.8 86 +39 +39 очень
душно
1011.5 1007.4
18 12.09 З 3 4000 м 8/3 600 м
[Sc diur, vesp Ci sp]
+27.2 +24.3 84 +38 +38 очень
душно
1011.3 1007.2
21 12.09 З 4 4000 м 9/4 600 м
[Sc Ac trans Ci sp]
+26.6 +24.9 90 +38 +38 очень
душно
1010.1 1006.0
00 13.09 З 3 4000 м 8/3 600 м
[Sc Ac trans Ci sp]
+26.4 +24.4 89 +37 +37 очень
душно
1010.5 1006.4
03 13.09 З 2 10 км 8/1 600 м
[Sc Ac trans Ci sp]
+29.6 +24.1 72 +41 +45 опасность
перегрева
1012.2 1008.1 +25.5 +30.6
06 13.09 З 3 10 км 6/3 600 м
[Sc Ac trans Ci fib]
+28.6 +24.0 76 +40 +49 очень
душно
1012.5 1008.4
09 13.09 З 5 10 км 8/4 600 м
[Sc Ac lent Ci fib]
+30.6 +25.8 76 +46 +49 опасность
перегрева
1010.2 1006.1
12 13.09 З 6 10 км 6/4 600 м
[Sc Ac trans Ci fib]
+28.6 +25.5 83 +42 +42 опасность
перегрева
1008.7 1004.6 +31.5
15 13.09 З 5 4000 м 8/4 600 м
[Sc Ac trans Ci sp]
+27.4 +24.8 86 +39 +39 очень
душно
1010.8 1006.7
18 13.09 З 2 4000 м 5/3 600 м
[Sc Ac und Ci fib]
+26.8 +23.6 83 +37 +37 очень
душно
1011.5 1007.4
21 13.09 З 3 4000 м 5/3 600 м
[Sc Ac trans Ci fib]
+26.0 +23.1 84 +35 +35 очень
душно
1009.3 1005.2
00 14.09 З 3 4000 м 6/3 600 м
[Sc Ac trans]
+25.8 +23.2 86 +35 +35 очень
душно
1009.7 1005.6
03 14.09 З 3 10 км 5/1 600 м
[Cu hum Ac trans Ci sp]
+28.6 +24.0 76 +40 +43 очень
душно
1012.6 1008.5 +24.9 +31.5
06 14.09 З 4 10 км 6/1 600 м
[Cu hum Ci sp]
+29.6 +25.1 77 +43 +54 опасность
перегрева
1011.7 1007.6
09 14.09 З 6 10 км 4/4 600 м
[Sc diur, vesp]
+30.0 +23.3 67 +40 +44 очень
душно
1009.0 1004.9
12 14.09 З 5 10 км 6/3 600 м
[Cb calv Ac trans Ci sp]
+29.4 +24.8 76 +42 +42 опасность
перегрева
1008.5 1004.4 +30.6
15 14.09 З 5 4000 м 8/3 600 м
[Sc diur, vesp Ac trans Ci sp]
+28.0 +23.9 78 +39 +39 очень
душно
1011.1 1007.0
18 14.09 З 4 4000 м 8/3 600 м
[Sc diur, vesp Ac trans Cs]
+27.6 +24.1 81 +38 +38 очень
душно
1011.7 1007.6
21 14.09 З 4 4000 м 8/3 600 м
[Sc diur, vesp Ac trans Cs]
+27.0 +24.1 84 +37 +37 очень
душно
1009.2 1005.1
00 15.09 З 4 4000 м 4/1 600 м
[Sc diur, vesp Ac trans Ci fib]
+26.2 +24.8 92 +37 +37 очень
душно
1009.3 1005.2
03 15.09 З 3 10 км 6/3 600 м
[Sc diur, vesp Ac trans Ci sp]
+28.0 +24.6 82 +40 +43 очень
душно
1011.8 1007.7 +25.5 +30.6
06 15.09 З 5 10 км 6/3 600 м
[Sc diur, vesp Ac trans Ci sp]
+28.6 +25.2 82 +42 +48 опасность
перегрева
1010.6 1006.5
09 15.09 З 6 10 км 8/3 600 м
[Cu med, cong Cs]
+29.6 +26.0 81 +44 +49 опасность
перегрева
1008.6 1004.5
12 15.09 З 6 10 км 8/3 600 м
[Cu med, cong Ac trans Ci sp]
+28.0 +25.2 85 +41 +41 опасность
перегрева
1008.6 1004.5 +30.5
15 15.09 З 6 4000 м 8/4 600 м
[Sc Ac trans Ci sp]
+27.6 +24.7 84 +39 +39 очень
душно
1010.0 1005.9
18 15.09 З 3 4000 м 8/4 600 м
[Sc Ac trans Ci sp]
+27.0 +23.8 83 +37 +37 очень
душно
1010.8 1006.7
21 15.09 З 4 4000 м 8/5 600 м
[Sc As trans]
+27.0 +23.8 83 +37 +37 очень
душно
1009.1 1005.0
00 16.09 З 3 4000 м 8/4 600 м
[Sc Ac trans]
+26.6 +23.1 81 +36 +36 очень
душно
1008.9 1004.8
03 16.09 З 4 10 км 8/4 600 м
[Sc Ac trans Ci sp]
+27.2 +23.7 81 +37 +39 очень
душно
1010.2 1006.1 +25.8 +30.5
06 16.09 З 4 10 км 8/4 600 м
[Sc Ac trans Ci sp]
+29.2 +25.2 79 +42 +48 опасность
перегрева
1010.1 1006.0
09 16.09 З 6 10 км 9/3 300 м
[Cb calv Ac As]
+28.2 +24.8 82 +40 +42 очень
душно
1007.3 1003.2
12 16.09 З 3 10 км 9/3 600 м
[Cb calv Ac As]
+27.4 +24.5 84 +39 +39 очень
душно
1007.3 1003.2 +31.2
15 16.09 З 3 4000 м 9/3 600 м
[Sc diur, vesp Ac trans Ci sp]
+27.2 +24.0 83 +38 +38 очень
душно
1008.7 1004.6
18 16.09 З 3 4000 м 4/1 600 м
[Sc diur, vesp Ac trans Ci sp]
+26.6 +24.3 87 +37 +37 очень
душно
1009.2 1005.1
21 16.09 З 3 4000 м 5/3 600 м
[Sc diur, vesp Ci sp]
+26.4 +23.8 86 +36 +36 очень
душно
1007.4 1003.3
00 17.09 З 4 4000 м 8/3 600 м
[Sc diur, vesp Ac trans Ci sp]
+26.2 +23.6 86 +36 +36 очень
душно
1007.6 1003.5
03 17.09 СЗ 5 10 км 8/1 600 м
[Sc Ac trans Ci sp]
+28.6 +24.3 78 +40 +42 очень
душно
1008.9 1004.8 +25.5 +31.2
06 17.09 З 5 10 км 6/3 600 м
[Sc diur, vesp Ci sp]
+30.4 +25.0 73 +44 +51 опасность
перегрева
1008.7 1004.6
09 17.09 З 5 10 км 5/4 600 м
[Cb calv Ci sp]
+30.6 +24.9 72 +44 +48 опасность
перегрева
1006.2 1002.1
12 17.09 З 5 10 км 5/1 600 м
[Sc Ci sp]
+28.6 +24.9 80 +41 +41 опасность
перегрева
1005.9 1001.8 +31.6
15 17.09 З 5 4000 м 5/1 600 м
[Sc Ci sp]
+28.2 +24.9 82 +40 +40 очень
душно
1007.6 1003.5
18 17.09 З 4 4000 м 5/1 600 м
[Sc Ac trans]
+27.6 +24.4 83 +39 +39 очень
душно
1008.4 1004.3
21 17.09 З 4 4000 м 4/1 600 м
[Sc Ac trans]
+27.2 +24.3 84 +38 +38 очень
душно
1006.9 1002.8
00 18.09 З 4 4000 м 8/1 600 м
[Sc Ac trans]
+26.4 +23.5 84 +36 +36 очень
душно
1007.8 1003.7

 

Местоположение метеостанции Каньякумари (Тамилнад, Индия): широта 8.08 долгота 77.50 высота над уровнем моря 37 м.

В архиве по умолчанию представлена погода в Каньякумари за последнюю неделю. Архивные данные за месяц целиком и за предыдущие месяцы, начиная с января 2011 года, Вы можете получить, выбрав интересующий диапазон дат из раскрывающегося списка и нажав кнопку "Ввод!".


*Определитесь, кто Вы:
робот инопланетянин человек

Внимание! Время в таблицах - всемирное. Для получения местного времени необходимо прибавить поправку, которая равна 5.5 ч.

Смотрите также архив погоды в соседних городах и на ближайших метеорологических станциях:

Погода в Тривандрам аэропорту (Керала, Индия) (74 км)
Погода в Тривандраме (Керала, Индия) (75 км)
Погода в Палайямкоттае (Тамилнад, Индия) (77 км)
Погода в Тутикорине (Тамилнад, Индия) (106 км)
Погода в Пуналере (Керала, Индия) (121 км)
Погода в Ковилангуламе (Тамилнад, Индия) (175 км)
Погода в Коттаяме (Керала, Индия) (189 км)
Погода в Алаппуже (Керала, Индия) (202 км)
Погода в Мадурай аэропорту (Тамилнад, Индия) (205 км)
Погода в Мадурае (Тамилнад, Индия) (216 км)

Пояснения к столбцам:

Ветер - указаны скорость ветра в м/с - средняя за 10 мин, порывы в срок и между сроками (в фигурных скобках) и направление, откуда дует ветер: С - северный, СВ - северо-восточный, В - восточный, ЮВ - юго-восточный, Ю - южный, ЮЗ - юго-западный, З - западный, СЗ - северо-западный.
Видимость - горизонтальная дальность видимости в метрах или километрах. При видимости от 1 до 10 км при отсутствии осадков обычно наблюдается дымка, при ухудшении видимости до 1 км и менее - туман. В сухую погоду видимость может ухудшаться дымом, пылью или мглою.
Явления - указаны атмосферные явления, наблюдавшиеся в срок или в последний час перед сроком; фигурными скобками обозначены явления, наблюдавшиеся между сроками (за 1-3 часа до срока); квадратными скобками обозначены град или гололедные отложения с указанием их диаметра в мм.
Облачность - указаны через наклонную черту общая и нижняя облачность в баллах и высота нижней границы облаков в метрах; квадратными скобками обозначены формы облаков: Ci - перистые, Cs - перисто-слоистые, Cc - перисто-кучевые, Ac - высококучевые, As - высокослоистые, Sc - слоисто-кучевые, Ns - слоисто-дождевые, Cu - кучевые, Cb - кучево-дождевые. Подробнее классификацию облаков см. в Атласе облаков (PDF).
T - Температура воздуха - температура, измеренная на высоте 2 м над землей.
Td - Температура точки росы - температура, при понижении до которой содержащийся в воздухе водяной пар достигнет насыщения.
f - Относительная влажность воздуха - влажноcть воздуха, измеренная на высоте 2 м над землей.
Te - Эффективная температура - температура, которую ощущает одетый по сезону человек в тени. Характеристика душности погоды. При расчете учитывается влияние влажности воздуха и скорости ветра на теплоощущения человека.
Tes - Эффективная температура на солнце - температура, которую ощущает человек, с поправкой на солнечный нагрев. Характеристика знойности погоды. Зависит от высоты солнца над горизонтом, облачности и скорости ветра. Ночью, в пасмурную погоду, а также при ветре 12 м/с и более поправка равна нулю.
P - Атмосферное давление - приведенное к уровню моря атмосферное давление.
Po - Атмосферное давление - измеренное на уровне метеостанции атмосферное давление.
Tmin - Минимальная температура - минимум температуры воздуха на высоте 2 м над землей.
Tmax - Максимальная температура - максимум температуры воздуха на высоте 2 м над землей.
R - Количество осадков - Количество выпавших осадков за период времени, мм. При наведении курсора мыши на число - период времени, за который выпало указанное количество осадков.
R24 - Количество осадков - Количество выпавших осадков за 24 часа, мм.
S - Снежный покров - Высота снежного покрова, см. При наведении курсора мыши на число - состояние снежного покрова и степень покрытия местности в баллах.